Wind_Speed
29 28 26 26 26 26 26 25 25 24 24 23 23 23 23 23 23 23 21 18 15 14 16 15 12 11 11 12 15 16 14 12 12 13 15 15 14 14 16 18 17 16 15 14 13 13 12 11 11 12 14 15
29 28 26 26 27 27 27 26 24 24 24 23 23 24 25 25 24 23 20 16 14 15 15 14 11 9 11 11 13 15 15 13 13 14 15 15 15 15 18 20 18 16 15 14 13 12 12 12 11 13 16 16
29 27 27 28 28 28 26 25 25 24 23 24 25 27 27 26 24 21 19 17 15 14 14 13 11 9 10 11 13 15 14 14 14 15 15 15 15 17 21 21 18 18 16 15 14 13 13 13 14 16 18 17
30 28 28 28 27 27 26 25 26 24 24 27 29 29 28 26 24 21 18 17 16 14 14 14 12 11 12 12 14 15 15 16 16 15 16 16 17 20 22 21 19 18 16 15 14 14 14 14 16 17 17 17
29 29 29 29 28 27 26 26 27 26 26 29 30 29 28 26 23 22 19 18 17 14 14 14 13 13 13 13 15 17 16 16 16 16 18 19 20 22 22 20 19 18 17 16 15 15 15 15 16 17 17 17
28 30 31 30 30 29 28 28 28 27 26 28 29 28 28 25 24 23 22 21 19 16 15 15 14 14 15 14 16 19 18 16 16 17 20 21 21 22 20 20 20 19 18 17 16 15 15 16 17 18 18 17
32 32 32 32 32 32 32 31 30 29 28 29 29 27 26 25 24 23 23 22 18 18 17 16 15 15 15 15 16 18 18 17 17 19 20 20 21 21 20 21 21 20 19 17 17 16 15 17 18 17 18 17
33 33 32 33 33 34 34 33 32 32 32 31 31 28 26 25 24 23 23 21 17 17 18 17 15 13 14 14 14 15 16 17 18 19 19 20 20 20 20 21 20 20 19 18 17 16 16 17 16 16 17 17
33 35 33 32 34 35 34 34 33 32 32 31 30 28 27 26 24 24 23 21 18 18 19 18 16 15 14 15 15 16 17 19 19 20 20 20 20 20 20 20 20 19 19 18 17 17 17 17 16 16 16 17
34 36 36 34 36 36 33 33 33 32 32 31 30 28 27 26 24 23 22 21 20 20 19 18 17 17 17 17 18 18 19 21 20 20 20 20 20 20 20 20 20 20 19 18 18 18 18 17 17 17 17 17
31 31 33 35 38 38 34 34 36 34 33 32 30 29 28 26 24 23 22 21 21 21 19 19 18 18 18 19 20 20 20 21 21 21 20 20 20 20 20 20 19 19 18 18 18 18 18 17 17 17 16 16
31 30 31 35 39 40 39 37 37 37 35 33 32 31 28 26 25 24 23 23 23 21 20 19 19 19 19 19 20 20 20 20 20 20 20 20 20 20 19 20 19 19 18 18 17 17 17 17 17 16 15 15
30 31 33 37 38 38 40 40 39 39 38 36 35 33 30 27 26 25 25 25 24 22 21 20 20 20 20 20 20 20 20 21 21 21 21 21 21 21 20 20 19 19 19 18 18 17 17 17 17 17 16 15
30 31 32 37 39 38 39 41 41 40 39 38 37 34 31 29 27 26 27 27 25 24 22 21 21 20 20 20 20 20 21 21 21 21 21 21 21 21 21 20 20 19 19 19 18 18 18 18 18 17 17 16
30 32 32 33 36 39 40 40 41 41 40 39 37 35 33 31 28 28 28 28 27 25 24 23 22 21 21 21 21 21 21 21 21 21 21 22 21 21 21 21 20 19 19 19 18 18 18 19 18 18 17 17
28 29 30 30 29 33 39 39 40 40 38 38 38 37 36 34 32 31 31 29 27 26 25 25 24 24 23 22 22 21 21 22 21 21 21 21 22 22 22 22 21 20 20 20 19 18 18 19 19 18 18 17
24 26 28 28 26 26 33 37 39 38 36 36 38 40 38 36 35 33 32 30 28 27 26 26 25 25 24 23 23 22 22 21 21 21 20 21 21 22 22 21 21 20 20 20 20 19 19 19 19 18 18 17
17 17 21 26 27 23 25 32 36 36 36 35 35 38 38 36 36 35 33 32 30 29 28 27 26 25 24 23 23 23 22 21 21 22 22 21 22 22 22 22 20 20 20 19 19 19 19 19 19 18 18 18
14 11 12 19 25 24 24 29 33 33 34 33 33 36 37 36 36 36 35 33 32 31 30 30 28 27 27 26 25 25 24 23 23 24 23 23 22 23 22 22 21 20 20 20 19 18 18 19 19 18 19 18
18 15 15 15 18 21 23 26 28 29 31 31 31 33 34 34 34 35 36 35 34 33 32 32 31 30 30 29 28 26 25 25 26 26 25 24 23 23 22 22 21 21 20 20 19 18 18 19 18 19 19 18
19 18 19 18 18 20 23 25 24 25 28 30 29 28 30 31 32 34 35 35 34 33 33 33 32 32 31 30 29 27 27 26 26 25 25 24 23 23 23 23 22 21 21 20 19 19 19 19 19 19 19 19
19 18 18 18 20 20 22 24 23 22 25 29 28 25 26 27 30 31 32 33 33 32 32 31 31 31 30 29 28 28 27 26 26 24 23 23 22 22 23 23 23 22 22 22 21 20 19 19 19 19 19 20
20 19 19 19 19 19 19 18 18 17 21 26 28 26 24 25 28 31 31 31 31 31 29 28 28 28 28 28 27 27 26 25 24 23 22 22 22 22 23 23 24 24 25 25 23 22 20 20 20 20 19 19
21 20 20 20 19 19 18 17 16 14 14 19 22 23 22 22 24 28 30 30 30 31 29 28 26 26 27 27 27 28 27 25 23 22 22 21 22 23 24 23 23 25 27 27 24 22 22 21 20 20 19 19
22 23 22 21 20 20 19 17 17 16 14 14 15 17 17 19 20 22 26 26 25 27 28 28 26 25 25 26 27 27 26 25 24 23 22 22 23 24 25 23 20 22 24 24 21 18 18 19 19 19 19 18
23 23 24 23 22 22 20 18 17 16 16 15 15 15 15 16 17 19 22 23 22 23 25 26 24 22 21 21 22 23 23 22 22 22 23 23 21 21 23 23 22 21 16 13 15 15 14 13 13 14 15 16
24 24 24 24 25 24 22 20 18 17 17 17 17 17 17 17 17 17 18 20 21 21 22 24 24 22 20 19 19 19 20 20 19 20 21 22 21 20 21 22 23 20 11 7 12 14 9 7 7 7 9 11
24 24 25 25 25 24 22 20 20 20 20 20 19 20 20 20 20 20 19 19 20 20 22 23 24 24 22 21 20 19 20 20 19 18 18 20 21 20 19 17 15 12 10 11 11 7 4 6 6 4 7 9
22 24 24 24 24 22 21 20 20 19 19 19 20 20 21 21 21 21 21 21 21 21 22 24 25 26 24 22 21 20 20 20 19 17 17 18 19 18 16 14 11 8 10 12 9 4 3 4 4 2 9 11
19 22 23 25 24 23 22 21 18 18 19 19 20 20 20 21 21 21 21 20 20 20 20 20 21 23 23 22 20 20 20 20 18 16 15 15 16 17 16 14 12 10 10 9 5 4 3 2 1 5 10 9
18 20 21 21 21 21 21 20 18 19 21 22 22 22 23 23 23 23 23 23 22 22 21 20 19 20 20 20 19 18 18 18 18 16 15 15 17 18 18 17 16 14 11 7 5 6 6 5 7 10 9 6
Wind_Direction
188 188 190 191 191 192 190 186 182 179 175 173 172 170 166 159 152 154 155 153 155 154 147 147 145 134 129 133 141 139 133 133 126 127 132 133 140 141 141 146 146 141 140 136 133 128 123 119 115 115 107 95
190 189 191 192 192 193 191 186 183 179 177 176 173 167 163 158 155 158 160 160 159 159 160 161 157 144 137 132 140 141 135 135 130 131 134 136 140 139 145 149 147 145 142 139 135 130 126 119 114 112 105 95
190 192 195 194 193 193 192 189 184 180 177 176 169 162 158 156 156 158 160 159 155 155 159 165 163 153 144 138 139 139 137 135 134 138 138 140 138 137 148 151 148 147 144 141 136 131 126 120 115 109 104 98
190 194 197 196 194 193 193 189 184 180 174 168 163 160 159 158 159 159 157 153 150 149 154 159 157 150 143 139 139 136 135 135 136 143 144 143 141 144 151 151 148 147 143 141 136 132 128 123 117 109 106 101
190 196 197 196 196 194 193 188 183 179 172 163 160 162 162 163 161 157 154 150 149 149 152 155 152 147 141 141 143 136 135 142 142 150 153 149 148 150 152 150 147 145 142 141 137 134 131 125 120 116 113 102
191 195 196 195 195 191 188 185 183 180 175 167 164 164 165 166 162 157 155 154 153 151 152 154 151 147 142 143 147 142 143 152 151 154 154 150 151 152 152 149 145 142 141 141 139 138 135 128 124 124 121 108
194 194 192 192 191 186 183 181 180 179 178 176 172 170 169 167 164 161 159 159 158 156 156 157 156 152 150 151 155 156 155 153 150 152 152 150 152 152 152 149 145 142 140 140 141 141 138 131 128 128 124 112
196 194 190 190 187 182 180 178 177 178 178 177 176 177 177 173 169 166 161 160 160 158 158 157 158 157 157 156 157 162 159 152 151 153 154 153 153 152 152 149 145 144 141 141 142 139 135 132 132 132 128 116
197 193 189 188 183 180 179 177 176 178 179 178 179 180 180 175 171 168 163 160 161 161 161 159 160 159 158 157 155 159 157 153 154 155 154 153 153 153 153 149 146 143 140 140 139 135 132 131 131 130 128 122
199 193 189 186 181 178 176 178 178 179 181 181 182 181 178 174 171 170 166 164 165 165 165 163 163 161 160 159 158 160 158 155 155 154 153 153 153 151 150 149 147 144 140 138 136 134 131 129 128 125 123 121
197 191 188 184 181 180 178 180 180 180 182 184 185 183 181 178 177 175 170 168 168 168 168 165 162 160 160 160 160 162 161 158 156 155 153 153 151 148 148 145 144 143 140 137 134 133 130 128 126 123 122 121
196 189 190 188 184 184 185 185 182 182 183 185 186 187 187 184 181 179 174 172 172 171 169 164 161 159 159 159 159 161 162 160 158 156 155 153 148 145 145 142 139 138 136 134 132 131 128 127 126 124 123 122
200 188 189 190 186 184 185 185 184 183 183 183 184 186 188 187 185 182 178 175 173 171 167 163 161 159 158 157 157 159 160 159 158 156 155 153 149 145 142 140 138 136 135 133 131 130 128 124 123 123 121 122
202 192 191 190 188 187 185 185 185 183 182 182 182 183 186 188 188 184 180 177 173 170 167 164 161 160 159 156 156 157 158 158 157 155 153 151 149 147 143 139 137 136 135 132 131 129 126 123 121 122 121 121
199 194 193 191 190 189 186 185 185 183 180 180 180 181 183 185 185 184 182 178 174 171 168 165 162 160 158 155 156 158 157 156 155 153 152 150 148 146 142 138 135 133 131 128 128 127 125 123 121 122 121 122
194 192 193 192 190 187 184 183 183 181 178 178 178 180 181 182 183 184 183 180 176 173 169 167 164 160 158 156 156 157 156 155 154 153 152 151 148 145 141 139 136 133 130 126 125 125 124 124 123 122 122 121
190 189 190 192 190 185 182 181 180 179 179 179 179 180 181 183 185 184 183 181 178 175 171 169 167 164 161 159 159 158 157 155 153 153 152 152 149 144 141 138 136 134 131 127 125 124 123 123 123 122 122 121
193 187 184 184 185 185 183 180 179 179 181 183 181 180 181 183 184 185 184 181 178 175 172 170 168 166 163 162 161 159 158 158 156 155 154 153 149 144 142 137 134 132 127 124 123 122 122 121 121 121 122 120
209 213 193 179 174 174 176 177 179 181 182 183 180 179 181 181 182 183 183 180 177 176 173 171 169 167 165 164 164 161 160 159 158 157 155 154 153 147 145 141 136 133 128 125 122 119 118 117 118 119 119 119
206 208 196 187 178 168 165 167 172 177 180 181 179 180 182 181 181 181 181 179 177 176 174 172 170 169 167 166 165 164 162 161 159 158 157 156 156 149 146 143 139 136 132 128 125 121 119 116 115 114 115 117
197 194 187 183 183 177 169 165 165 170 176 177 174 177 180 181 181 179 179 179 177 175 174 173 172 169 168 167 166 165 164 163 162 161 160 158 157 151 147 144 139 134 130 127 124 122 120 117 115 113 112 114
189 188 187 180 176 176 171 166 160 158 165 171 172 173 175 178 180 178 177 178 178 175 173 172 171 169 168 166 164 163 162 162 162 162 162 159 157 153 148 145 139 132 128 124 119 115 114 113 112 110 110 110
183 179 179 176 171 170 168 165 159 148 146 158 167 170 170 173 176 176 175 177 180 178 174 171 168 166 166 165 163 161 158 156 156 157 159 159 157 152 148 144 141 136 129 122 115 111 107 107 107 105 105 107
178 173 168 166 164 162 160 161 164 159 144 145 156 161 161 163 166 171 172 172 176 178 177 172 168 164 163 163 162 159 156 153 150 150 152 154 154 150 143 136 135 135 130 119 109 106 104 104 106 105 105 104
175 173 169 165 163 160 155 154 156 156 152 147 150 156 159 159 157 162 166 167 169 172 173 172 168 162 159 159 159 156 152 150 149 147 146 145 146 146 139 131 128 131 129 120 110 105 101 99 103 106 105 102
174 174 173 169 164 160 154 151 152 149 148 149 153 158 162 162 159 157 159 162 165 166 166 165 162 159 156 154 155 151 146 144 144 144 143 141 138 140 139 137 137 135 131 129 129 125 113 102 99 99 98 94
172 172 173 171 166 162 156 151 154 154 151 152 154 157 158 159 160 160 157 156 158 159 158 159 160 160 159 158 158 154 147 142 141 141 142 144 140 140 141 142 145 144 138 142 143 136 132 137 127 113 107 91
173 171 170 169 165 162 159 150 149 148 144 146 148 149 152 153 154 156 156 155 157 159 159 161 163 162 160 159 159 159 153 145 142 140 141 144 144 143 143 145 155 160 151 148 152 149 139 159 167 169 143 113
173 170 166 163 158 155 150 143 140 139 135 138 140 139 142 146 149 150 151 152 155 158 158 157 158 158 155 152 152 154 151 145 142 140 140 143 146 148 151 155 160 168 165 161 169 175 130 154 194 174 139 132
172 170 166 162 157 151 145 139 137 140 138 138 138 137 137 139 143 145 145 145 146 148 151 150 148 149 149 147 146 147 146 142 142 142 142 147 153 155 158 158 150 141 150 161 169 161 142 159 161 130 148 155
171 167 164 162 158 153 148 142 139 143 144 142 140 139 139 140 141 143 144 143 143 143 145 148 148 148 148 148 146 147 147 143 143 145 146 150 153 153 152 150 142 132 131 131 113 112 112 107 120 132 149 161
Height
839 840 842 844 845 847 848 848 849 850 851 852 853 853 854 855 856 857 858 859 859 860 861 862 863 863 863 863 863 864 865 866 866 866 866 867 867 868 869 869 870 870 871 871 871 871 872 872 873 873 873 874
839 840 842 843 845 846 847 848 849 850 851 852 852 853 853 854 855 857 858 858 859 860 861 862 862 863 863 863 863 864 865 866 866 866 866 867 867 867 868 869 870 871 871 871 872 872 873 873 873 873 874 875
839 840 841 843 844 845 846 847 848 849 850 851 852 852 853 854 855 857 858 858 858 860 861 862 862 862 863 863 863 864 865 866 866 866 866 866 867 867 868 869 870 871 871 872 872 873 873 874 874 874 875 876
837 839 841 842 844 845 846 847 847 848 849 850 851 851 853 854 855 856 857 857 858 859 861 862 862 862 862 863 863 864 865 866 866 866 866 866 866 867 868 868 870 871 872 872 873 873 874 874 875 875 876 877
836 838 840 841 842 844 845 845 846 847 848 849 850 851 852 854 855 855 857 858 857 858 860 861 862 862 862 863 863 864 865 866 866 865 865 865 866 867 868 869 870 871 872 872 873 874 874 875 875 876 877 878
835 837 838 840 841 842 843 844 845 846 847 849 850 851 852 853 854 855 856 857 857 857 860 861 862 862 862 863 863 864 865 865 865 864 865 865 866 867 868 869 870 871 872 873 873 874 874 875 876 877 878 879
834 835 836 838 838 840 841 842 843 844 846 847 849 851 852 853 853 854 855 856 856 856 858 860 861 862 862 862 862 863 863 864 864 865 865 866 866 867 868 869 870 871 871 873 873 874 874 875 876 877 878 879
832 833 834 835 836 838 839 840 841 843 845 846 847 849 851 852 852 853 854 855 855 856 858 859 861 861 862 862 862 863 863 864 864 865 866 866 866 867 868 869 870 871 871 872 873 874 874 875 876 877 878 879
829 830 832 833 835 836 837 839 840 842 844 846 847 848 850 851 852 853 853 854 855 856 857 859 860 861 862 862 862 863 863 864 864 865 866 866 866 867 868 868 869 871 871 872 873 873 874 875 876 877 878 879
826 828 828 830 832 834 836 838 840 842 843 845 846 848 849 850 851 852 853 853 855 856 857 858 859 860 861 861 862 863 863 863 864 865 865 866 866 867 868 868 869 870 871 872 872 873 874 875 876 877 878 879
825 827 828 828 830 831 834 836 838 840 841 843 845 847 848 849 850 851 852 853 854 856 856 857 858 859 860 860 861 862 862 863 864 864 865 866 866 867 867 868 869 870 871 872 872 873 874 874 876 877 878 879
824 826 828 829 829 829 831 834 836 837 839 840 842 844 847 848 849 850 851 853 854 855 856 856 857 858 859 860 860 861 862 862 863 864 865 866 867 868 868 868 869 870 871 872 873 873 874 875 875 877 878 879
824 826 826 827 829 829 830 831 833 835 837 838 839 841 844 846 848 849 850 852 853 854 855 856 856 857 858 858 859 860 861 862 863 864 865 866 866 868 869 869 869 870 871 872 873 874 874 875 875 877 878 879
824 826 826 826 827 828 829 829 831 833 835 836 837 839 842 844 846 848 850 851 851 853 854 855 856 856 857 858 859 860 861 862 863 863 864 866 866 867 868 869 870 871 872 873 874 874 874 875 876 877 877 878
824 825 825 825 826 826 826 828 829 831 833 835 837 838 840 842 845 847 848 850 850 852 853 854 855 856 856 857 858 859 860 861 862 863 864 865 866 867 868 869 870 872 873 873 874 875 875 875 875 876 877 878
823 823 824 824 825 824 824 826 828 829 832 833 835 837 839 841 843 846 847 848 849 850 852 853 854 855 856 857 858 859 859 860 862 863 864 865 866 867 868 869 870 872 873 874 875 875 875 875 876 876 877 877
822 822 822 823 824 824 823 824 825 828 831 832 832 834 837 839 842 844 846 847 849 850 851 852 853 854 855 856 857 858 859 859 861 862 864 865 865 866 868 869 870 871 873 874 875 876 876 876 876 876 877 877
823 822 821 821 822 825 825 823 824 827 830 831 832 833 836 838 840 842 844 846 848 849 850 851 853 854 854 855 856 857 858 859 860 861 863 864 865 866 867 869 871 872 873 874 876 877 877 876 877 877 877 878
824 824 824 823 821 823 824 823 825 827 829 831 832 833 835 837 838 839 842 844 846 848 849 850 851 852 854 855 856 856 857 858 859 861 862 864 865 865 867 869 870 872 873 874 876 877 877 877 877 877 878 878
823 824 825 825 823 823 823 823 826 828 829 831 832 833 834 836 837 838 840 842 844 846 847 848 849 851 852 853 855 855 856 858 859 860 862 864 864 865 867 868 869 871 873 874 876 877 878 878 878 878 879 879
822 824 824 824 824 825 825 825 827 830 830 829 831 833 835 836 837 838 839 841 843 845 846 847 848 849 851 852 853 854 855 856 858 860 862 863 865 865 866 867 869 871 872 873 875 877 878 879 879 879 880 881
822 824 825 824 825 826 826 827 828 830 829 828 830 833 835 836 837 838 839 841 842 844 846 847 848 849 851 852 853 854 855 857 858 859 862 864 864 865 865 866 868 870 871 873 875 878 879 879 880 881 881 882
822 823 825 826 827 828 829 830 832 832 829 827 829 833 836 837 837 837 839 841 842 843 846 847 849 850 850 852 853 854 855 857 858 859 862 864 864 865 866 866 867 869 870 872 875 877 879 880 881 882 883 883
821 823 825 827 828 830 831 833 834 835 833 831 831 833 836 837 838 837 837 839 841 842 844 847 849 850 850 851 852 853 854 856 858 859 862 864 864 865 866 867 868 869 870 872 875 878 879 881 882 882 883 884
820 822 825 827 829 830 832 833 834 835 836 836 835 836 837 839 840 839 838 839 842 843 843 845 848 850 851 851 852 852 853 854 856 858 861 864 865 865 866 868 869 871 871 872 875 879 881 882 883 883 884 885
821 822 824 826 828 830 832 833 834 835 836 837 838 839 840 841 842 842 840 840 843 845 844 844 848 852 854 854 854 854 854 855 856 858 860 862 864 866 866 867 869 870 872 873 874 877 880 883 885 885 885 885
820 822 823 825 827 829 830 832 834 835 836 838 839 839 840 841 843 844 844 843 844 846 847 845 847 852 854 855 856 856 856 856 858 859 860 861 863 865 867 868 869 869 871 873 874 875 877 880 883 885 887 887
820 821 823 825 826 828 829 831 833 835 836 838 839 840 840 840 841 843 845 846 846 847 848 847 847 850 853 855 856 857 856 856 858 860 861 861 862 865 868 869 870 870 871 872 873 873 873 875 876 878 883 887
820 821 823 824 826 828 830 832 835 836 838 839 840 840 840 840 841 843 844 845 846 848 848 848 847 847 850 853 855 857 857 857 859 860 861 862 863 865 868 870 870 872 872 872 872 871 870 871 871 872 878 884
822 823 824 825 826 827 829 832 835 837 839 840 841 841 841 842 843 844 845 846 847 849 850 851 850 848 850 853 856 858 858 858 859 861 862 863 864 866 868 870 871 872 873 873 873 871 870 870 869 871 876 880
824 825 826 826 826 827 829 831 834 837 838 839 841 841 842 842 843 844 845 846 847 849 851 852 852 851 852 854 858 860 860 859 860 862 863 864 865 866 868 870 871 872 873 873 873 872 871 871 870 871 874 875